Weather in Bragin

Belarus     51°46′51″N   30°16′27″E
temp.,
°C
wind,
m/s
gust,
m/s
humid.,
%
clouds,
%
prec.,
mm/h
press.,
hPa
HPBL,
m
22 september, wed
wed2200:00+4nw6997100 0.4 1016732
03:00+5nw5997100 0.7 1015782
06:00+4nw5897100 0.4 1015757
09:00+5nw4795100 0.2 1015760
12:00+5nw4692100 0.1 1015778
15:00+5nw4694100 0.2 1015557
18:00+6nw4793100 0.0 1015591
21:00+6nw3696100 0.2 1015452
23 september, thu
thu2300:00+6nw3696100 0.2 1015474
03:00+5nw3695100 0.8 1015441
06:00+5wnw3594100 0.6 1014897
09:00+6wnw3594100 1.1 1014912
12:00+6w3590100 0.4 1014928
15:00+6w3692100 0.9 1014759
18:00+6w3693100 0.2 1013534
21:00+6s249688 0.2 1012151
24 september, fri
fri2400:00+6s51093100 0.0 1009319
03:00+7s61397100 2.6 1005546
06:00+9ssw81597100 3.8 1000611
09:00+9sw101793100 11.6 9971011
12:00+12w9127259 0.4 9981285
15:00+11w91582100 1.3 9991658
18:00+9w61386100 1.0 1000986
21:00+9w71392100 2.4 1002860
25 september, sat
sat2500:00+9wnw91690100 5.2 1004828
03:00+8wnw61491100 0.5 1005702
06:00+9wnw51190100 0.0 1008586
09:00+9wnw61187100 0.0 1010669
12:00+11w6882100 0.0 1012622
15:00+10wsw4991100 0.1 1013467
18:00+10wsw41189100 0.0 1013477
21:00+11wsw41192100 0.1 1014412
26 september, sun
sun2600:00+12wsw51292100 0.1 1014402
03:00+12wnw512931 0.3 1015428
06:00+10wnw5129513 0.1 1016401
09:00+11wnw611890 0.1 1018410
12:00+14nw686823 0.0 10191095
15:00+13nnw687387 0.1 10211044
18:00+12nw36735 0.0 1021145
21:00+9nnw378834 0.0 1022139